Terminal Aerodrome Forecast
Issued by NWS

Home | Current Version | Previous Version | Text Only | Print | Product List | Glossary On
Versions: 1 2 3 4 5 6 7 8 9 10 11 12 13 14 15 16 17 18
000
FTUS46 KLOX 220543
TAFPMD
TAF
KPMD 220543Z 2206/2306 23015G22KT P6SM SCT025 BKN050
     FM222000 24025G35KT P6SM VCSH SCT035 BKN050
     FM230400 24017G25KT P6SM BKN050=

USA.gov is the U.S. government's official web portal to all federal, state and local government web resources and services.